Warning: Javascript must be enabled to use all the features on this page!


Page Loading - Please Wait...

Click to hideNews Bulletins

Streamflow Measurements for the Nation


USGS 11313431 HOLLAND CUT NR BETHEL ISLAND CA


Contra Costa County, California
Hydrologic Unit Code 18040003
Latitude  38°00'59", Longitude 121°34'55" NAD83
Output formats
HTML table with channel data
HTML table without channel data
Tab-separated data with channel data
Tab-separated data without channel data
Graph of data
Reselect output format
Meas.
Number
  Date       Time Time
Datum
Measurement
Used?
  Who Measuring
Agency
Stream
flow
(ft3/s)
Gage
Height
(ft)
GH
Change
(ft)
Meas.
Duration
(hr)
Meas.
Rated
  Control Flow
Adjust.
Code
 
8172019-12-11 14:03:10PSTYesHR, NSUSGS-1690014.66 Poor NONE
8182019-12-11 13:55:22PSTYesHR, NSUSGS-1750014.59 Poor NONE
8162019-12-11 13:47:08PSTYesHR, NSUSGS-1690014.52 Poor NONE
8152019-12-11 13:39:24PSTYesHR, NSUSGS-1740014.45 Poor NONE
8142019-12-11 13:31:48PSTYesHR, NSUSGS-1770014.37 Poor NONE
8132019-12-11 13:24:48PSTYesHR, NSUSGS-1770014.31 Poor NONE
8122019-10-31 09:41:01PSTYesNWS/HRUSGS966013.47 Fair NONE
8112019-10-31 09:33:38PSTYesNWS/HRUSGS851013.51 Poor NONE
8102019-10-31 09:26:13PSTYesNWS/HRUSGS726013.55 Fair NONE
8092019-10-31 09:18:39PSTYesNWS/HRUSGS609013.59 Fair NONE
8082019-10-31 09:09:43PSTYesNWS/HRUSGS426013.62 Fair NONE
8072019-10-31 08:57:34PSTYesNWS/HRUSGS127013.69 Fair NONE
8062019-09-17 14:07:07PSTYesHR/CHUSGS-682012.27 Fair NONE
8052019-09-17 13:56:37PSTYesHR/CHUSGS-345012.19 Fair NONE
8042019-09-17 13:51:16PSTYesHR/CHUSGS-173012.16 Fair NONE
8032019-09-17 13:46:27PSTYesHR/CHUSGS-34312.12 Fair NONE
8022019-09-17 13:41:39PSTYesHR/CHUSGS99312.10 Fair NONE
8012019-09-17 13:36:36PSTYesHR/CHUSGS211012.07 Fair NONE
8002019-07-24 09:38:39PSTYesTD/ACUSGS-757013.36 Fair NONE
7992019-07-24 09:33:48PSTYesTD/ACUSGS-773013.37 Fair NONE
7982019-07-24 09:29:03PSTYesTD/ACUSGS-834013.35 Fair NONE
7972019-07-24 09:24:21PSTYesTD/ACUSGS-869013.34 Fair NONE
7962019-07-24 09:19:45PSTYesTD/ACUSGS-894013.33 Fair NONE
7952019-07-24 09:15:02PSTYesTD/ACUSGS-913013.31 Fair NONE
7942019-05-29 10:01:59PSTYesMP, HRUSGS-451012.60 Good NONE
7932019-05-29 09:56:04PSTYesMP, HRUSGS-334012.56 Good NONE
7922019-05-29 09:50:16PSTYesMP, HRUSGS-209021.53 Good NONE
7912019-05-29 09:44:17PSTYesMP, HRUSGS-84012.49 Good NONE
7902019-05-29 09:38:27PSTYesMP, HRUSGS39912.46 Good NONE
7892019-05-29 09:32:23PSTYesMP, HRUSGS142012.43 Good NONE
7882019-05-09 10:58:26PSTYesMP, ZH, MIUSGS1940014.39 Good NONE
7872019-05-09 10:52:15PSTYesMP, ZH, MIUSGS1910014.44 Good NONE
7862019-05-09 10:46:19PSTYesMP, ZH, MIUSGS1810014.50 Good NONE
7852019-05-09 10:40:33PSTYesMP, ZH, MIUSGS1870014.55 Good NONE
7842019-05-09 10:34:39PSTYesMP, ZH, MIUSGS1870014.60 Good NONE
7832019-05-09 10:29:49PSTYesMP, ZH, MIUSGS1890014.64 Good NONE
7822019-04-03 10:05:56PSTYesMP, HRUSGS1290012.94 Good NONE
7812019-04-03 10:00:15PSTYesMP, HRUSGS1300012.95 Good NONE
7802019-04-03 09:54:23PSTYesMP, HRUSGS1350012.97 Good NONE
7792019-04-03 09:48:53PSTYesMP, HRUSGS1410013.00 Good NONE
7782019-04-03 09:43:06PSTYesMP, HRUSGS1470013.00 Good NONE
7772019-04-03 09:30:55PSTYesMP, HRUSGS1430013.09 Good NONE
7762019-02-07 14:44:58PSTYesMP,NSUSGS-1490013.27 Good NONE
7752019-02-07 14:37:45PSTYesMP,NSUSGS-1410013.22 Good NONE
7742019-02-07 14:30:49PSTYesMP,NSUSGS-1330013.17 Good NONE
7732019-02-07 14:24:34PSTYesMP,NSUSGS-1250013.12 Good NONE
7722019-02-07 14:18:20PSTYesMP,NSUSGS-1150013.08 Good NONE
7712019-02-07 14:12:24PSTYesMP,NSUSGS-1060013.03 Good NONE
7702018-09-18 14:13:08PSTYesTV, TD, MPUSGS-745013.75 Good NONE
7692018-09-18 14:07:43PSTYesTV, TD, MPUSGS-811013.75 Good NONE
7682018-09-18 14:02:34PSTYesTV, TD, MPUSGS-840013.74 Good NONE
7672018-09-18 13:57:33PSTYesTV, TD, MPUSGS-899013.74 Good NONE
7662018-09-18 13:51:45PSTYesTV, TD, MPUSGS-941013.73 Good NONE
7652018-09-18 13:47PSTYesTV, TD, MPUSGS-970013.7213.72 Good NONE
7642018-07-30 13:58:55PSTYesMI/CC/HRUSGS360011.57 Good NONE
7632018-07-30 13:53:29PSTYesMI/CC/HRUSGS440011.57 Good NONE
7622018-07-30 13:47:50PSTYesMI/CC/HRUSGS525011.57 Good NONE
7612018-07-30 13:42:03PSTYesMI/CC/HRUSGS608011.57 Good NONE
7602018-07-30 13:36:18PSTYesMI/CC/HRUSGS649011.59 Good NONE
7592018-07-30 13:30:48PSTYesMI/CC/HRUSGS699011.60 Good NONE
7582018-06-05 14:16:55PSTYesTV/CCUSGS1300011.94 Good NONE
7572018-06-05 14:12:16PSTYesTV/CCUSGS1310011.97 Good NONE
7562018-06-05 14:07:09PSTYesTV/CCUSGS1320012.01 Good NONE
7552018-06-05 14:02:30PSTYesTV/CCUSGS1380012.05 Good NONE
7542018-06-05 13:57:47PSTYesTV/CCUSGS1360012.09 Good NONE
7532018-06-05 13:52:45PSTYesTV/CCUSGS1390012.12 Good NONE
7522018-04-05 10:34:25PSTYesCMC/NWSUSGS1600013.76 Good NONE
7512018-04-05 10:28:29PSTYesCMC/NWSUSGS1650013.81 Good NONE
7502018-04-05 10:22:44PSTYesCMC/NWSUSGS1620013.85 Good NONE
7492018-04-05 10:16:36PSTYesCMC/NWSUSGS1580013.90 Good NONE
7482018-04-05 10:11:26PSTYesCMC/NWSUSGS1660013.93 Good NONE
7472018-04-05 10:06:16PSTYesCMC/NWSUSGS1620013.97 Good NONE
7462018-02-22 13:11:30PSTYesNWS/BSUSGS1520013.02 Unspecified NONE
7452018-02-22 13:07:30PSTYesNWS/BSUSGS1510013.03 Unspecified NONE
7442018-02-22 13:03PSTYesNWS/BSUSGS1520013.05 Unspecified NONE
7432018-02-22 12:58:30PSTYesNWS/BSUSGS1490013.11 Unspecified NONE
7422018-02-22 12:54PSTYesNWS/BSUSGS1500013.18 Unspecified NONE
7412018-02-22 12:49PSTYesNWS/BSUSGS1510013.20 Unspecified NONE
7402017-12-12 12:28PSTYesJB, BSUSGS-1460013.90 Unspecified NONE
7392017-12-12 12:21PSTYesJB, BSUSGS-1500013.88 Unspecified NONE
7382017-12-12 12:15:30PSTYesJB, BSUSGS-1530013.82 Unspecified NONE
7372017-12-12 12:10PSTYesJB, BSUSGS-1560013.80 Unspecified NONE
7362017-12-12 11:52:30PSTYesJB, BSUSGS-1620013.67 Unspecified NONE
7352017-12-12 11:46:30PSTYesJB, BSUSGS-1580013.63 Unspecified NONE
7342017-10-23 10:14:50PSTYesJB, NSUSGS876012.88 Good NONE
7332017-10-23 10:08:35PSTYesJB, NSUSGS803012.92 Good NONE
7322017-10-23 10:00:12PSTYesJB, NSUSGS802012.96 Good NONE
7312017-10-23 09:52:48PSTYesJB, NSUSGS762013.01 Good NONE
7302017-10-23 09:23:35PSTYesJB, NSUSGS456013.20 Good NONE
7292017-10-23 09:15:05PSTYesJB, NSUSGS330013.24 Good NONE
7282017-10-23 09:06:21PSTYesJB, NSUSGS191013.29 Fair NONE
7272017-10-23 08:58:28PSTYesJB, NSUSGS47513.32 Fair NONE
7262017-08-16 12:20:30PSTYesJB, NSUSGS-1090013.78 Unspecified NONE
7252017-08-16 12:14PSTYesJB, NSUSGS-1170013.76 Unspecified NONE
7242017-08-16 12:07PSTYesJB, NSUSGS-1190013.72 Unspecified NONE
7232017-08-16 12:00:30PSTYesJB, NSUSGS-1210013.69 Unspecified NONE
7222017-08-16 11:24:30PSTYesJB, NSUSGS-1320013.43 Unspecified NONE
7212017-08-16 11:17PSTYesJB, NSUSGS-1340013.37 Unspecified NONE
7202017-06-01 11:26:30PSTYesJB, NSUSGS626014.07 Unspecified NONE
7192017-06-01 11:21PSTYesJB, NSUSGS527014.10 Unspecified NONE
7182017-06-01 11:15PSTYesJB, NSUSGS439014.13 Unspecified NONE
7172017-06-01 11:09PSTYesJB, NSUSGS299014.17 Unspecified NONE
7162017-06-01 10:34:30PSTYesJB, NSUSGS-355014.31 Unspecified NONE
7152017-06-01 10:29PSTYesJB, NSUSGS-462014.32 Unspecified NONE
7142017-04-19 13:12PSTYesJB, BJSUSGS1460013.41 Unspecified NONE
7132017-04-19 13:08:30PSTYesJB, BJSUSGS1420013.46 Unspecified NONE
7122017-04-19 12:27:30PSTYesJB, BJSUSGS1520013.67 Unspecified NONE
7112017-04-19 12:21PSTYesJB, BJSUSGS1460013.71 Unspecified NONE
7102017-04-19 11:48:30PSTYesJB, BJSUSGS1330013.87 Unspecified NONE
7092017-04-19 11:43PSTYesJB, BJSUSGS1310013.91 Unspecified NONE
7082017-02-01 14:51:30PSTYesJB, NDUSGS723013.09 Unspecified NONE
7072017-02-01 14:46PSTYesJB, NDUSGS737013.09 Unspecified NONE
7062017-02-01 14:40:30PSTYesJB, NDUSGS781013.10 Unspecified NONE
7052017-02-01 14:35PSTYesJB, NDUSGS774013.11 Unspecified NONE
7042017-02-01 14:27PSTYesJB, NDUSGS830013.13 Unspecified NONE
7032017-02-01 14:21:30PSTYesJB, NDUSGS876013.14 Unspecified NONE
7022016-11-16 14:38PSTYesJB, BSUSGS-1860013.70 Unspecified NONE
7012016-11-16 14:32PSTYesJB, BSUSGS-1880013.63 Unspecified NONE
7002016-11-16 14:25PSTYesJB, BSUSGS-1830013.58 Unspecified NONE
6992016-11-16 14:19:30PSTYesJB, BSUSGS-1880013.53 Unspecified NONE
6982016-11-16 14:13:30PSTYesJB, BSUSGS-1870013.47 Unspecified NONE
6972016-11-16 14:07:30PSTYesJB, BSUSGS-1880013.41 Unspecified NONE
6962016-09-14 12:08:30PSTYesJB, BJSUSGS-1670012.26 Unspecified NONE
6952016-09-14 12:02PSTYesJB, BJSUSGS-1700012.21 Unspecified NONE
6942016-09-14 11:56PSTYesJB, BJSUSGS-1630012.16 Unspecified NONE
6932016-09-14 11:50PSTYesJB, BJSUSGS-1600012.11 Unspecified NONE
6922016-09-14 11:44PSTYesJB, BJSUSGS-1490012.05 Unspecified NONE
6912016-09-14 11:38PSTYesJB, BJSUSGS-1420012.01 Unspecified NONE
6902016-04-20 14:22:49PSTYesjbd FCUSGS-1660013.22 Good NONE
6892016-04-20 14:12:29PSTYesjbd FCUSGS-1670013.12 Good NONE
6882016-04-20 14:02:59PSTYesjbd FCUSGS-1710013.04 Good NONE
6872016-04-20 13:52:46PSTYesjbd FCUSGS-1680012.95 Good NONE
6862016-04-20 13:45:19PSTYesjbd FCUSGS-1660012.89 Good NONE
6852016-04-20 13:37:11PSTYesjbd FCUSGS-17200 12.82 Good NONE
6842016-02-25 14:08:23PSTYesJD, RJUSGS-738012.12 Poor NONE
6832016-02-25 14:02:56PSTYesJD, RJUSGS-585012.09 Poor NONE
6822016-02-25 13:57:31PSTYesJD, RJUSGS-400012.02 Poor NONE
6812016-02-25 13:51:51PSTYesJD, RJUSGS-254011.98 Poor NONE
6802015-12-17 14:08:04PSTYesTV,DVUSGS1430012.79 Fair NONE
6792015-12-17 14:01:36PSTYesTV,DVUSGS1390012.83 Fair NONE
6782015-12-17 13:54:53PSTYesTV,DVUSGS1390012.88 Fair NONE
6772015-12-17 13:48:06PSTYesTV,DVUSGS1480012.91 Fair NONE
6762015-12-17 13:38:16PSTYesTV,DVUSGS1440012.98 Fair NONE
6752015-12-17 13:32:34PSTYesTV,DVUSGS1490013.04 Fair NONE
6742015-10-13 14:53:08PSTYesTV, JBDUSGS-1530013.81 Poor NONE
6732015-10-13 14:44:24PSTYesTV, JBDUSGS-1550013.75 Poor NONE
6722015-10-13 14:35:58PSTYesTV, JBDUSGS-1530013.68 Poor NONE
6712015-10-13 14:28:21PSTYesTV, JBDUSGS-1620013.54 Poor NONE
6702015-10-13 14:19:58PSTYesTV, JBDUSGS-1580013.54 Poor NONE
6692015-10-13 14:11:53PSTYesTV, JBDUSGS-1600013.41 Poor NONE
6682015-08-11 12:48PSTYesJD/BSUSGS-1230012.71 Unspecified NONE
6672015-08-11 12:35PSTYesJD/BSUSGS-1200012.65 Unspecified NONE
6662015-08-11 12:27PSTYesJD/BSUSGS-1170012.56 Unspecified NONE
6552015-08-11 12:06PSTYesJD/BSUSGS-1010012.44 Unspecified NONE
6542015-08-11 11:53PSTYesJD/BSUSGS-839012.32 Unspecified NONE
6532015-08-11 11:44PSTYesJD/BSUSGS-709012.27 Unspecified NONE
6522015-06-16 12:06PSTYesAD/JBDUSGS980011.93 UnspecifiedClearNONE
6512015-06-16 12:01PSTYesAD/JBDUSGS996011.97 UnspecifiedClearNONE
6502015-06-16 11:36PSTYesAD/JBDUSGS1090012.12 UnspecifiedClearNONE
6492015-06-16 11:30PSTYesAD/JBDUSGS1080012.18 UnspecifiedClearNONE
6482015-06-16 11:22PSTYesAD/JBDUSGS1100012.23 UnspecifiedClearNONE
6472015-06-16 11:16PSTYesAD/JBDUSGS1140012.28 UnspecifiedClearNONE
6462015-04-21 11:44PSTYesN/AUSGS15300 UnspecifiedClearNONE
6452015-04-21 11:38PSTYesN/AUSGS16500 UnspecifiedClearNONE
6442015-04-21 11:30PSTYesN/AUSGS15800 UnspecifiedClearNONE
6432015-04-21 11:25PSTYesN/AUSGS16400 UnspecifiedClearNONE
6422015-04-21 11:16PSTYesN/AUSGS16400 UnspecifiedClearNONE
6412015-04-21 11:11PSTYesN/AUSGS15700 UnspecifiedClearNONE
6402015-04-21 10:55PSTYesN/AUSGS16800 UnspecifiedClearNONE
6392015-04-21 10:49PSTYesN/AUSGS16800 UnspecifiedClearNONE
6382015-04-21 10:39PSTYesN/AUSGS16700 UnspecifiedClearNONE
6372015-04-21 10:32PSTYesN/AUSGS17000 UnspecifiedClearNONE
6362015-04-21 10:22PSTYesN/AUSGS16500 UnspecifiedClearNONE
6352015-04-21 10:16PSTYesN/AUSGS17200 UnspecifiedClearNONE
6342015-04-21 10:06PSTYesN/AUSGS16800 UnspecifiedClearNONE
6332015-04-21 10:00PSTYesN/AUSGS17300 UnspecifiedClearNONE
6322015-04-21 09:30PSTYesN/AUSGS17800 UnspecifiedClearNONE
6312015-04-21 09:23PSTYesN/AUSGS17200 UnspecifiedClearNONE
6302015-04-21 09:12PSTYesN/AUSGS17300 UnspecifiedClearNONE
6292015-04-21 09:05PSTYesN/AUSGS17800 UnspecifiedClearNONE
6282015-02-24 14:01PSTYesNJD,JDUSGS13500 Unspecified NONE
6272015-02-24 13:50PSTYesNJD,JDUSGS14200 Unspecified NONE
6262015-02-24 13:41PSTYesNJD,JDUSGS14600 Unspecified NONE
6252015-02-24 13:28PSTYesNJD,JDUSGS13900 Unspecified NONE
6242015-02-24 13:16PSTYesNJD,JDUSGS14600 Unspecified NONE
6232015-02-24 13:02PSTYesNJD,JDUSGS15500 Unspecified NONE
6222014-12-10 17:01PSTYesKM,MVCUSGS-14600 Unspecified NONE
6212014-12-10 16:50PSTYesKM,MVCUSGS-15300 Unspecified NONE
6202014-12-10 16:45PSTYesKM,MVCUSGS-14800 Unspecified NONE
6192014-12-10 16:35PSTYesKM,MVCUSGS-15000 Unspecified NONE
6182014-12-10 16:27PSTYesKM,MVCUSGS-15500 Unspecified NONE
6172014-12-10 16:15PSTYesKM,MVCUSGS-15100 Unspecified NONE
6162014-12-10 15:51PSTYesKM,MVCUSGS-13800 Unspecified NONE
6152014-12-10 15:39PSTYesKM,MVCUSGS-13800 Unspecified NONE
6142014-12-10 15:33PSTYesKM,MVCUSGS-13700 Unspecified NONE
6132014-12-10 15:22PSTYesKM,MVCUSGS-14300 Unspecified NONE
6122014-12-10 15:12PSTYesKM,MVCUSGS-14200 Unspecified NONE
6112014-12-10 15:04PSTYesKM,MVCUSGS-14300 Unspecified NONE
6102014-12-10 14:59PSTYesKM,MVCUSGS-14500 Unspecified NONE
6092014-12-10 14:44PSTYesKM,MVCUSGS-13500 Unspecified NONE
6082014-12-10 14:34PSTYesKM,MVCUSGS-12700 Unspecified NONE
6072014-12-10 14:20PSTYesKM,MVCUSGS-11200 Unspecified NONE
6062014-12-10 14:03PSTYesKM,MVCUSGS-8240 Unspecified NONE
6052014-12-10 13:52PSTYesKM,MVCUSGS-4790 Unspecified NONE
6042014-12-10 13:39PSTYesKM,MVCUSGS-1880 Unspecified NONE
6032014-12-10 13:25PSTYesKM,MVCUSGS-1160 Unspecified NONE
6022014-12-10 13:12PSTYesKM,MVCUSGS3320 Unspecified NONE
6012014-12-10 13:00PSTYesKM,MVCUSGS5010 Unspecified NONE
6002014-12-10 12:49PSTYesKM,MVCUSGS5880 Unspecified NONE
5992014-12-10 12:40PSTYesKM,MVCUSGS6580 Unspecified NONE
5982014-12-10 12:17PSTYesKM,MVCUSGS8130 Unspecified NONE
5972014-12-10 12:03PSTYesKM,MVCUSGS8530 Unspecified NONE
5962014-12-10 11:52PSTYesKM,MVCUSGS8430 Unspecified NONE
5952014-12-10 11:39PSTYesKM,MVCUSGS9840 Unspecified NONE
5942014-12-10 11:28PSTYesKM,MVCUSGS9440 Unspecified NONE
5932014-12-10 11:17PSTYesKM,MVCUSGS9290 Unspecified NONE
5922014-12-10 11:03PSTYesKM,MVCUSGS8650 Unspecified NONE
5912014-12-10 10:54PSTYesKM,MVCUSGS8800 Unspecified NONE
5902014-12-10 10:40PSTYesKM,MVCUSGS8040 Unspecified NONE
5892014-12-10 10:29PSTYesKM,MVCUSGS8090 Unspecified NONE
5882014-12-10 10:19PSTYesKM,MVCUSGS6860 Unspecified NONE
5872014-12-10 10:10PSTYesKM,MVCUSGS5980 Unspecified NONE
5862014-12-10 09:47PSTYesKM,MVCUSGS2720 Unspecified NONE
5852014-12-10 09:36PSTYesKM,MVCUSGS260 Unspecified NONE
5842014-12-10 09:26PSTYesKM,MVCUSGS-1490 Unspecified NONE
5832014-12-10 09:18PSTYesKM,MVCUSGS-3300 Unspecified NONE
5822014-12-10 09:08PSTYesKM,MVCUSGS-4850 Unspecified NONE
5812014-12-10 09:00PSTYesKM,MVCUSGS-6810 Unspecified NONE
5802014-12-10 08:52PSTYesKM,MVCUSGS-6990 Unspecified NONE
5792014-12-10 08:44PSTYesKM,MVCUSGS-8220 Unspecified NONE
5782014-12-10 08:26PSTYesKM,MVCUSGS-9810 Unspecified NONE
5772014-12-10 08:13PSTYesKM,MVCUSGS-11200 Unspecified NONE
5762014-12-10 08:00PSTYesKM,MVCUSGS-12100 Unspecified NONE
5752014-12-10 07:47PSTYesKM,MVCUSGS-12800 Unspecified NONE
5742014-12-10 07:33PSTYesKM,MVCUSGS-12800 Unspecified NONE
5732014-12-10 07:21PSTYesKM,MVCUSGS-13400 Unspecified NONE
5722014-12-10 07:09PSTYesKM,MVCUSGS-13100 Unspecified NONE
5712014-12-10 07:01PSTYesKM,MVCUSGS-13400 Unspecified NONE
5702014-12-10 06:49PSTYesKM,MVCUSGS-13900 Unspecified NONE
5692014-12-10 06:40PSTYesKM,MVCUSGS-14300 Unspecified NONE
5682014-12-10 06:26PSTYesKM,MVCUSGS-14600 Unspecified NONE
5672014-12-10 06:15PSTYesKM,MVCUSGS-16000 Unspecified NONE
5662014-12-10 06:05PSTYesKM,MVCUSGS-16200 Unspecified NONE
5652014-12-10 05:52PSTYesKM,MVCUSGS-16200 Unspecified NONE
5642014-12-10 05:34PSTYesKM,MVCUSGS-15900 Unspecified NONE
5632014-12-10 05:21PSTYesKM,MVCUSGS-16200 Unspecified NONE
5622014-08-19 15:57PSTYesYESUSGS942014.73 Unspecified NONE
5612014-08-19 15:50PSTYesYESUSGS913014.76 Unspecified NONE
5602014-08-19 15:43PSTYesYESUSGS779014.79 Unspecified NONE
5592014-08-19 15:36PSTYesYESUSGS689014.82 Unspecified NONE
5582014-08-19 15:30PSTYesYESUSGS593014.87 Unspecified NONE
5572014-08-19 15:06PSTYesYESUSGS147014.98 Unspecified NONE
5562014-08-19 15:00PSTYesYESUSGS85615.00 Unspecified NONE
5552014-08-19 14:55PSTYesYESUSGS-46015.02 Unspecified NONE
5542014-08-19 14:49PSTYesYESUSGS-111015.04 Unspecified NONE
5532014-08-19 14:43PSTYesYESUSGS-218015.05 Unspecified NONE
5522014-08-19 14:35PSTYesYESUSGS-275015.06 Unspecified NONE
5512014-08-19 14:25PSTYesYESUSGS-407015.07 Unspecified NONE
5502014-08-19 14:19PSTYesYESUSGS-482015.07 Unspecified NONE
5492013-08-05 06:47PSTYesYESUSGS14400 Unspecified NONE
5482013-08-05 06:43PSTYesYESUSGS14700 Unspecified NONE
5472013-08-05 06:36PSTYesYESUSGS15300 Unspecified NONE
5462013-08-05 06:26PSTYesYESUSGS15200 Unspecified NONE
5452013-08-05 05:58PSTYesYESUSGS15000 Unspecified NONE
5442013-08-05 05:53PSTYesYESUSGS14700 Unspecified NONE
5432013-08-05 05:18PSTYesYESUSGS13400 Unspecified NONE
5422013-08-05 05:10PSTYesYESUSGS12600 Unspecified NONE
5412013-08-05 04:57PSTYesYESUSGS11400 Unspecified NONE
5402013-08-05 04:51PSTYesYESUSGS9620 Unspecified NONE
5392013-08-05 04:38PSTYesYESUSGS7690 Unspecified NONE
5382013-08-05 04:31PSTYesYESUSGS5700 Unspecified NONE
5372013-08-05 03:01PSTYesYESUSGS-12300 Unspecified NONE
5362013-08-05 02:55PSTYesYESUSGS-13000 Unspecified NONE
5352013-08-05 02:19PSTYesYESUSGS-15100 Unspecified NONE
5342013-08-05 02:02PSTYesYESUSGS-15800 Unspecified NONE
5332013-08-05 01:46PSTYesYESUSGS-16500 Unspecified NONE
5322013-08-05 01:39PSTYesYESUSGS-16500 Unspecified NONE
5312013-08-04 21:53PSTYesYESUSGS1130 Unspecified NONE
5302013-08-04 21:44PSTYesYESUSGS2580 Unspecified NONE
5292013-08-04 21:40PSTYesYESUSGS3570 Unspecified NONE
5282013-08-04 21:31PSTYesYESUSGS4650 Unspecified NONE
5272013-08-04 21:27PSTYesYESUSGS5930 Unspecified NONE
5262013-08-04 21:18PSTYesYESUSGS6700 Unspecified NONE
5252013-08-04 21:13PSTYesYESUSGS7030 Unspecified NONE
5242013-08-04 21:07PSTYesYESUSGS7450 Unspecified NONE
5232013-08-04 21:03PSTYesYESUSGS7550 Unspecified NONE
5222013-08-04 20:53PSTYesYESUSGS7910 Unspecified NONE
5212013-08-04 20:49PSTYesYESUSGS8150 Unspecified NONE
5202013-08-04 20:37PSTYesYESUSGS8880 Unspecified NONE
5192013-08-04 20:32PSTYesYESUSGS9700 Unspecified NONE
5182013-08-04 20:21PSTYesYESUSGS9690 Unspecified NONE
5172013-08-04 20:16PSTYesYESUSGS10000 Unspecified NONE
5162013-08-04 20:05PSTYesYESUSGS10100 Unspecified NONE
5152013-08-04 20:00PSTYesYESUSGS10200 Unspecified NONE
5142013-08-04 19:36PSTYesYESUSGS10100 Unspecified NONE
5132013-08-04 19:26PSTYesYESUSGS10800 Unspecified NONE
5122013-08-04 19:15PSTYesYESUSGS10400 Unspecified NONE
5112013-07-17 16:18PSTYesYESUSGS7770 Unspecified NONE
5102013-07-17 16:10PSTYesYESUSGS8170 Unspecified NONE
5092013-07-17 16:04PSTYesYESUSGS8360 Unspecified NONE
5082013-07-17 15:55PSTYesYESUSGS8400 Unspecified NONE
5072013-07-17 15:46PSTYesYESUSGS8660 Unspecified NONE
5062013-07-17 15:38PSTYesYESUSGS8630 Unspecified NONE
5052013-07-17 15:32PSTYesYESUSGS8850 Unspecified NONE
5042013-07-17 15:23PSTYesYESUSGS8740 Unspecified NONE
5032013-07-17 15:16PSTYesYESUSGS8890 Unspecified NONE
5022013-07-17 15:02PSTYesYESUSGS8690 Unspecified NONE
5012013-07-17 13:46PSTYesYESUSGS4350 Unspecified NONE
5002011-04-08 15:35PSTYesYESUSGS11400 Unspecified NONE
4992011-04-08 15:26PSTYesYESUSGS11500 Unspecified NONE
4982011-04-08 15:19PSTYesYESUSGS12400 Unspecified NONE
4972011-04-08 15:10PSTYesYESUSGS13300 Unspecified NONE
4962010-07-13 18:36PSTYesYESUSGS-13300 Unspecified NONE
4952010-07-13 18:31PSTYesYESUSGS-13500 Unspecified NONE
4942010-07-13 18:24PSTYesYESUSGS-14100 Unspecified NONE
4932010-07-13 18:19PSTYesYESUSGS-14600 Unspecified NONE
4922010-07-13 18:14PSTYesYESUSGS-14900 Unspecified NONE
4912010-07-13 18:09PSTYesYESUSGS-14900 Unspecified NONE
4902010-07-13 18:02PSTYesYESUSGS-15600 Unspecified NONE
4892010-07-13 17:57PSTYesYESUSGS-15600 Unspecified NONE
4882010-07-13 17:52PSTYesYESUSGS-16000 Unspecified NONE
4872010-07-13 17:48PSTYesYESUSGS-15600 Unspecified NONE
4862010-07-13 17:43PSTYesYESUSGS-16300 Unspecified NONE
4852010-07-13 17:39PSTYesYESUSGS-16300 Unspecified NONE
4842010-07-13 17:34PSTYesYESUSGS-16300 Unspecified NONE
4832010-07-13 17:30PSTYesYESUSGS-16500 Unspecified NONE
4822010-07-13 16:55PSTYesYESUSGS-18000 Unspecified NONE
4812010-07-13 16:50PSTYesYESUSGS-16900 Unspecified NONE
4802010-07-13 16:43PSTYesYESUSGS-17200 Unspecified NONE
4792010-07-13 16:38PSTYesYESUSGS-17600 Unspecified NONE
4782010-07-13 16:28PSTYesYESUSGS-17400 Unspecified NONE
4772010-07-13 16:22PSTYesYESUSGS-17900 Unspecified NONE
4762010-07-13 16:14PSTYesYESUSGS-17800 Unspecified NONE
4752010-07-13 15:46PSTYesYESUSGS-17800 Unspecified NONE
4742010-07-13 15:37PSTYesYESUSGS-18000 Unspecified NONE
4732010-07-13 15:31PSTYesYESUSGS-17500 Unspecified NONE
4722010-07-13 15:23PSTYesYESUSGS-17900 Unspecified NONE
4712010-07-13 15:17PSTYesYESUSGS-16700 Unspecified NONE
4702010-07-13 15:11PSTYesYESUSGS-16300 Unspecified NONE
4692010-07-13 15:05PSTYesYESUSGS-15400 Unspecified NONE
4682010-07-13 14:58PSTYesYESUSGS-15100 Unspecified NONE
4672010-07-13 14:53PSTYesYESUSGS-13800 Unspecified NONE
4662010-07-13 14:47PSTYesYESUSGS-12300 Unspecified NONE
4652010-07-13 14:44PSTYesYESUSGS-11600 Unspecified NONE
4642010-07-13 14:38PSTYesYESUSGS-10500 Unspecified NONE
4632010-07-13 14:31PSTYesYESUSGS-8080 Unspecified NONE
4622010-07-13 14:25PSTYesYESUSGS-6670 Unspecified NONE
4612010-07-13 14:19PSTYesYESUSGS-4500 Unspecified NONE
4602010-07-13 14:12PSTYesYESUSGS-2470 Unspecified NONE
4592010-07-13 14:07PSTYesYESUSGS-526 Unspecified NONE
4582010-07-13 13:57PSTYesYESUSGS1850 Unspecified NONE
4572010-07-13 13:53PSTYesYESUSGS3390 Unspecified NONE
4562010-07-13 13:38PSTYesYESUSGS6100 Unspecified NONE
4552010-07-13 13:32PSTYesYESUSGS6770 Unspecified NONE
4542010-07-13 13:27PSTYesYESUSGS7460 Unspecified NONE
4532010-07-13 13:22PSTYesYESUSGS7840 Unspecified NONE
4522010-07-13 13:12PSTYesYESUSGS8730 Unspecified NONE
4512010-07-13 13:03PSTYesYESUSGS9130 Unspecified NONE
4502010-07-13 12:55PSTYesYESUSGS9540 Unspecified NONE
4492010-07-13 12:49PSTYesYESUSGS9740 Unspecified NONE
4482010-07-13 12:42PSTYesYESUSGS10100 Unspecified NONE
4472010-07-13 12:35PSTYesYESUSGS9930 Unspecified NONE
4462010-07-13 12:30PSTYesYESUSGS10400 Unspecified NONE
4452010-07-13 12:25PSTYesYESUSGS10300 Unspecified NONE
4442010-07-13 12:17PSTYesYESUSGS10600 Unspecified NONE
4432010-07-13 12:11PSTYesYESUSGS11000 Unspecified NONE
4422010-07-13 11:55PSTYesYESUSGS11200 Unspecified NONE
4412010-07-13 11:49PSTYesYESUSGS11400 Unspecified NONE
4402010-07-13 11:40PSTYesYESUSGS11700 Unspecified NONE
4392010-07-13 11:35PSTYesYESUSGS11900 Unspecified NONE
4382010-07-13 11:29PSTYesYESUSGS12000 Unspecified NONE
4372010-07-13 11:25PSTYesYESUSGS12200 Unspecified NONE
4362010-07-13 11:17PSTYesYESUSGS12100 Unspecified NONE
4352010-07-13 11:10PSTYesYESUSGS12200 Unspecified NONE
4342010-07-13 10:54PSTYesYESUSGS12700 Unspecified NONE
4332010-07-13 10:48PSTYesYESUSGS12500 Unspecified NONE
4322010-07-13 10:41PSTYesYESUSGS12900 Unspecified NONE
4312010-07-13 10:36PSTYesYESUSGS12700 Unspecified NONE
4302010-07-13 10:29PSTYesYESUSGS13000 Unspecified NONE
4292010-07-13 09:52PSTYesYESUSGS14100 Unspecified NONE
4282010-07-13 09:43PSTYesYESUSGS14500 Unspecified NONE
4272010-07-13 09:37PSTYesYESUSGS14100 Unspecified NONE
4262010-07-13 09:29PSTYesYESUSGS14700 Unspecified NONE
4252010-07-13 09:24PSTYesYESUSGS15400 Unspecified NONE
4242010-07-13 09:16PSTYesYESUSGS15400 Unspecified NONE
4232010-07-13 09:10PSTYesYESUSGS14600 Unspecified NONE
4222010-07-13 09:02PSTYesYESUSGS15600 Unspecified NONE
4212010-07-13 08:36PSTYesYESUSGS15900 Unspecified NONE
4202010-07-13 08:31PSTYesYESUSGS16000 Unspecified NONE
4192010-07-13 08:27PSTYesYESUSGS17000 Unspecified NONE
4182010-07-13 08:21PSTYesYESUSGS17000 Unspecified NONE
4172010-07-13 08:16PSTYesYESUSGS17100 Unspecified NONE
4162010-07-13 08:09PSTYesYESUSGS16100 Unspecified NONE
4152010-07-13 08:04PSTYesYESUSGS15800 Unspecified NONE
4142010-07-13 07:55PSTYesYESUSGS16300 Unspecified NONE
4132010-07-13 07:50PSTYesYESUSGS16200 Unspecified NONE
4122010-07-13 07:40PSTYesYESUSGS15400 Unspecified NONE
4112010-07-13 07:36PSTYesYESUSGS15600 Unspecified NONE
4102010-07-13 07:27PSTYesYESUSGS16300 Unspecified NONE
4092010-07-13 07:23PSTYesYESUSGS14800 Unspecified NONE
4082010-07-13 07:14PSTYesYESUSGS14500 Unspecified NONE
4072010-07-13 07:09PSTYesYESUSGS14100 Unspecified NONE
4062010-07-13 06:59PSTYesYESUSGS13600 Unspecified NONE
4052010-07-13 06:51PSTYesYESUSGS12300 Unspecified NONE
4042010-07-13 06:34PSTYesYESUSGS9830 Unspecified NONE
4032010-07-13 06:30PSTYesYESUSGS8300 Unspecified NONE
4022010-07-13 06:17PSTYesYESUSGS4510 Unspecified NONE
4012010-01-27 12:24PSTYesYESUSGS-17300 Unspecified NONE
4002010-01-27 12:19PSTYesYESUSGS-17300 Unspecified NONE
3992010-01-27 12:14PSTYesYESUSGS-18100 Unspecified NONE
3982010-01-27 12:09PSTYesYESUSGS-18300 Unspecified NONE
3972010-01-27 12:04PSTYesYESUSGS-18500 Unspecified NONE
3962010-01-27 11:57PSTYesYESUSGS-18400 Unspecified NONE
3952009-06-24 15:56PSTYesYESUSGS-17900 Unspecified NONE
3942009-06-24 15:50PSTYesYESUSGS-17700 Unspecified NONE
3932009-06-24 15:45PSTYesYESUSGS-18200 Unspecified NONE
3922009-06-24 15:39PSTYesYESUSGS-18300 Unspecified NONE
3912009-06-24 15:34PSTYesYESUSGS-17800 Unspecified NONE
3902009-06-24 15:27PSTYesYESUSGS-17800 Unspecified NONE
3892009-06-24 15:22PSTYesYESUSGS-16900 Unspecified NONE
3882009-06-24 15:17PSTYesYESUSGS-16400 Unspecified NONE
3872009-06-24 15:13PSTYesYESUSGS-15900 Unspecified NONE
3862009-06-24 15:07PSTYesYESUSGS-14900 Unspecified NONE
3852009-06-24 15:02PSTYesYESUSGS-13600 Unspecified NONE
3842009-06-24 14:56PSTYesYESUSGS-12500 Unspecified NONE
3832009-06-24 14:51PSTYesYESUSGS-10900 Unspecified NONE
3822009-06-24 14:45PSTYesYESUSGS-9120 Unspecified NONE
3812009-06-24 14:39PSTYesYESUSGS-7090 Unspecified NONE
3802009-06-24 14:31PSTYesYESUSGS-5000 Unspecified NONE
3792009-06-24 14:26PSTYesYESUSGS-2180 Unspecified NONE
3782009-06-24 14:17PSTYesYESUSGS589 Unspecified NONE
3772009-06-24 14:12PSTYesYESUSGS3170 Unspecified NONE
3762009-06-24 14:05PSTYesYESUSGS4860 Unspecified NONE
3752009-06-24 14:00PSTYesYESUSGS6240 Unspecified NONE
3742009-06-24 13:50PSTYesYESUSGS7860 Unspecified NONE
3732009-06-24 13:45PSTYesYESUSGS8910 Unspecified NONE
3722009-06-24 13:37PSTYesYESUSGS10200 Unspecified NONE
3712009-06-24 13:32PSTYesYESUSGS10900 Unspecified NONE
3702009-06-24 13:20PSTYesYESUSGS11600 Unspecified NONE
3692009-06-24 13:16PSTYesYESUSGS12000 Unspecified NONE
3682009-06-24 13:06PSTYesYESUSGS12700 Unspecified NONE
3672009-06-24 13:00PSTYesYESUSGS13500 Unspecified NONE
3662009-06-24 12:10PSTYesYESUSGS15700 Unspecified NONE
3652009-06-24 12:02PSTYesYESUSGS16000 Unspecified NONE
3642009-06-24 11:54PSTYesYESUSGS15800 Unspecified NONE
3632009-06-24 11:47PSTYesYESUSGS16200 Unspecified NONE
3622009-06-24 11:36PSTYesYESUSGS15800 Unspecified NONE
3612009-06-24 11:29PSTYesYESUSGS16400 Unspecified NONE
3602009-06-24 10:36PSTYesYESUSGS16600 Unspecified NONE
3592009-06-24 10:29PSTYesYESUSGS16700 Unspecified NONE
3582009-06-24 10:20PSTYesYESUSGS17000 Unspecified NONE
3572009-06-24 10:12PSTYesYESUSGS17500 Unspecified NONE
3562009-06-24 09:28PSTYesYESUSGS17600 Unspecified NONE
3552009-06-24 09:20PSTYesYESUSGS16700 Unspecified NONE
3542009-06-24 09:10PSTYesYESUSGS18300 Unspecified NONE
3532009-06-24 09:03PSTYesYESUSGS18000 Unspecified NONE
3522009-06-24 08:25PSTYesYESUSGS18500 Unspecified NONE
3512009-06-24 08:17PSTYesYESUSGS18900 Unspecified NONE
3502009-06-24 08:04PSTYesYESUSGS19400 Unspecified NONE
3492009-06-24 07:55PSTYesYESUSGS18700 Unspecified NONE
3482009-06-24 07:45PSTYesYESUSGS17200 Unspecified NONE
3472009-06-24 07:38PSTYesYESUSGS17700 Unspecified NONE
3462009-06-24 07:25PSTYesYESUSGS18700 Unspecified NONE
3452009-06-24 07:15PSTYesYESUSGS17800 Unspecified NONE
3442009-06-24 07:03PSTYesYESUSGS17600 Unspecified NONE
3432009-06-24 06:55PSTYesYESUSGS16100 Unspecified NONE
3422009-06-24 06:43PSTYesYESUSGS14900 Unspecified NONE
3412009-06-24 06:35PSTYesYESUSGS14000 Unspecified NONE
3402009-06-24 06:16PSTYesYESUSGS10400 Unspecified NONE
3392009-06-24 06:09PSTYesYESUSGS7940 Unspecified NONE
3382009-06-24 05:58PSTYesYESUSGS5040 Unspecified NONE
3372009-06-24 05:51PSTYesYESUSGS1300 Unspecified NONE
3362009-06-24 05:40PSTYesYESUSGS-1510 Unspecified NONE
3352009-03-12 11:23PSTYesBJS/CRBUSGS1260011.67 Unspecified NONE
3342009-03-12 11:16PSTYesBJS/CRBUSGS1360011.72 Unspecified NONE
3332009-03-12 11:09PSTYesBJS/CRBUSGS1360011.78 Unspecified NONE
3322009-03-12 11:01PSTYesBJS/CRBUSGS1340011.85 Unspecified NONE
3312009-03-12 10:55PSTYesBJS/CRBUSGS1290011.90 Unspecified NONE
3302009-03-12 10:47PSTYesBJS/CRBUSGS1400011.97 Unspecified NONE
3292009-01-13 15:16PSTYesBJS/MAYUSGS-1830012.69 Unspecified NONE
3282009-01-13 15:10PSTYesBJS/MAYUSGS-1770012.63 Unspecified NONE
3272009-01-13 15:03PSTYesBJS/MAYUSGS-1820012.57 Unspecified NONE
3262009-01-13 14:57PSTYesBJS/MAYUSGS-1780012.51 Unspecified NONE
3252009-01-13 14:51PSTYesBJS/MAYUSGS-1770012.44 Unspecified NONE
3242009-01-13 14:46PSTYesBJS/MAYUSGS-1810012.39 Unspecified NONE
3232008-08-20 17:12PSTYesPHK/MAYUSGS-1670013.50 Unspecified NONE
3222008-08-20 17:08PSTYesPHK/MAYUSGS-1640013.46 Unspecified NONE
3212008-08-20 17:03PSTYesPHK/MAYUSGS-1650013.41 Unspecified NONE
3202008-08-20 16:58PSTYesPHK/MAYUSGS-1670013.37 Unspecified NONE
3192008-08-20 16:54PSTYesPHK/MAYUSGS-1670013.33 Unspecified NONE
3182008-08-20 16:50PSTYesPHK/MAYUSGS-1630013.29 Unspecified NONE
3172008-08-20 16:46PSTYesPHK/MAYUSGS-1680013.26 Unspecified NONE
3162008-08-20 16:42PSTYesPHK/MAYUSGS-1700013.22 Unspecified NONE
3152008-08-20 16:37PSTYesPHK/MAYUSGS-1750013.18 Unspecified NONE
3142008-08-20 16:32PSTYesPHK/MAYUSGS-1720013.14 Unspecified NONE
3132008-06-17 13:51PSTYesTMG/CARUSGS-1500011.81 Unspecified NONE
3122008-06-17 13:42PSTYesTMG/CARUSGS-1390011.76 Unspecified NONE
3112008-06-17 13:34PSTYesTMG/CARUSGS-1280011.71 Unspecified NONE
3102008-06-17 13:25PSTYesTMG/CARUSGS-1130011.66 Unspecified NONE
3092008-06-17 13:17PSTYesTMG/CARUSGS-944011.59 Unspecified NONE
3082008-06-17 13:09PSTYesTMG/CARUSGS-723011.52 Unspecified NONE
3072008-06-17 13:02PSTYesTMG/CARUSGS-496011.46 Unspecified NONE
3062008-06-17 12:55PSTYesTMG/CARUSGS-274011.41 Unspecified NONE
3052008-06-17 12:48PSTYesTMG/CARUSGS-28711.36 Unspecified NONE
3042008-06-17 12:41PSTYesTMG/CARUSGS170011.32 Unspecified NONE
3032008-06-17 12:34PSTYesTMG/CARUSGS382011.28 Unspecified NONE
3022008-06-17 12:23PSTYesTMG/CARUSGS597011.24 Unspecified NONE
3012008-05-14 17:25PSTYesBJS/PSxUSGS1390011.62 Unspecified NONE
3002008-05-14 17:21PSTYesBJS/PSxUSGS1390011.65 Unspecified NONE
2992008-05-14 17:17PSTYesBJS/PSxUSGS1350011.68 Unspecified NONE
2982008-05-14 17:12PSTYesBJS/PSxUSGS1420011.71 Unspecified NONE
2972008-05-14 17:08PSTYesBJS/PSxUSGS1390011.75 Unspecified NONE
2962008-05-14 17:04PSTYesBJS/PSxUSGS1390011.78 Unspecified NONE
2952008-05-14 16:59PSTYesBJS/PSxUSGS1380011.81 Unspecified NONE
2942008-05-14 16:55PSTYesBJS/PSxUSGS1410011.84 Unspecified NONE
2932008-05-14 16:51PSTYesBJS/PSxUSGS1450011.88 Unspecified NONE
2922008-05-14 16:46PSTYesBJS/PSxUSGS1450011.91 Unspecified NONE
2912008-05-14 16:40PSTYesBJS/PSxUSGS1430011.96 Unspecified NONE
2902008-05-14 16:33PSTYesBJS/PSxUSGS1400012.01 Unspecified NONE
2892008-05-14 16:27PSTYesBJS/PSxUSGS1480012.06 Unspecified NONE
2882008-05-14 16:00PSTYesBJS/PSxUSGS1410012.26 Unspecified NONE
2872008-05-14 15:54PSTYesBJS/PSxUSGS1460012.31 Unspecified NONE
2862008-05-14 15:48PSTYesBJS/PSxUSGS1440012.35 Unspecified NONE
2852008-05-14 15:42PSTYesBJS/PSxUSGS1420012.39 Unspecified NONE
2842008-05-14 15:36PSTYesBJS/PSxUSGS1410012.43 Unspecified NONE
2832008-05-14 15:31PSTYesBJS/PSxUSGS1400012.48 Unspecified NONE
2822008-05-14 15:25PSTYesBJS/PSxUSGS1320012.51 Unspecified NONE
2812008-05-14 15:19PSTYesBJS/PSxUSGS1320012.54 Unspecified NONE
2802008-05-14 15:14PSTYesBJS/PSxUSGS1270012.57 Unspecified NONE
2792008-05-14 15:09PSTYesBJS/PSxUSGS1270012.61 Unspecified NONE
2782008-05-14 15:04PSTYesBJS/PSxUSGS1210012.64 Unspecified NONE
2772008-05-14 14:59PSTYesBJS/PSxUSGS1200012.67 Unspecified NONE
2762008-05-14 14:54PSTYesBJS/PSxUSGS1120012.69 Unspecified NONE
2752008-05-14 14:49PSTYesBJS/PSxUSGS1080012.72 Unspecified NONE
2742008-05-14 14:44PSTYesBJS/PSxUSGS1030012.75 Unspecified NONE
2732008-05-14 14:39PSTYesBJS/PSxUSGS953012.78 Unspecified NONE
2722008-05-14 14:35PSTYesBJS/PSxUSGS896012.80 Unspecified NONE
2712008-05-14 14:30PSTYesBJS/PSxUSGS847012.83 Unspecified NONE
2702008-05-14 14:26PSTYesBJS/PSxUSGS760012.86 Unspecified NONE
2692008-05-14 14:21PSTYesBJS/PSxUSGS689012.88 Unspecified NONE
2682008-05-14 14:17PSTYesBJS/PSxUSGS590012.91 Unspecified NONE
2672008-05-14 14:12PSTYesBJS/PSxUSGS489012.94 Unspecified NONE
2662008-05-14 14:08PSTYesBJS/PSxUSGS403012.96 Unspecified NONE
2652008-05-14 14:03PSTYesBJS/PSxUSGS266012.99 Unspecified NONE
2642008-05-14 13:59PSTYesBJS/PSxUSGS203013.01 Unspecified NONE
2632008-05-14 13:55PSTYesBJS/PSxUSGS79513.03 Unspecified NONE
2622008-05-14 13:50PSTYesBJS/PSxUSGS-24613.06 Unspecified NONE
2612008-05-14 13:45PSTYesBJS/PSxUSGS-138013.08 Unspecified NONE
2602008-05-14 13:41PSTYesBJS/PSxUSGS-243013.10 Unspecified NONE
2592008-05-14 13:36PSTYesBJS/PSxUSGS-371013.12 Unspecified NONE
2582008-05-14 13:31PSTYesBJS/PSxUSGS-448013.14 Unspecified NONE
2572008-05-14 13:26PSTYesBJS/PSxUSGS-536013.14 Unspecified NONE
2562008-05-14 13:22PSTYesBJS/PSxUSGS-598013.13 Unspecified NONE
2552008-05-14 13:17PSTYesBJS/PSxUSGS-674013.12 Unspecified NONE
2542008-05-14 13:12PSTYesBJS/PSxUSGS-739013.12 Unspecified NONE
2532008-05-14 13:07PSTYesBJS/PSxUSGS-802013.11 Unspecified NONE
2522008-05-14 13:03PSTYesBJS/PSxUSGS-859013.11 Unspecified NONE
2512008-05-14 12:58PSTYesBJS/PSxUSGS-911013.11 Unspecified NONE
2502008-05-14 12:53PSTYesBJS/PSxUSGS-971013.10 Unspecified NONE
2492008-05-14 12:48PSTYesBJS/PSxUSGS-1050013.09 Unspecified NONE
2482008-05-14 12:42PSTYesBJS/PSxUSGS-1080013.06 Unspecified NONE
2472008-05-14 12:29PSTYesBJS/PSxUSGS-1210013.00 Unspecified NONE
2462008-05-14 12:23PSTYesBJS/PSxUSGS-1270012.98 Unspecified NONE
2452008-05-14 12:13PSTYesBJS/PSxUSGS-1330012.93 Unspecified NONE
2442008-05-14 12:09PSTYesBJS/PSxUSGS-1270012.90 Unspecified NONE
2432008-05-14 11:51PSTYesBJS/PSxUSGS-1400012.80 Unspecified NONE
2422008-05-14 11:46PSTYesBJS/PSxUSGS-1430012.77 Unspecified NONE
2412008-05-14 11:41PSTYesBJS/PSxUSGS-1450012.73 Unspecified NONE
2402008-05-14 11:36PSTYesBJS/PSxUSGS-1460012.70 Unspecified NONE
2392008-05-14 11:31PSTYesBJS/PSxUSGS-1440012.66 Unspecified NONE
2382008-05-14 11:26PSTYesBJS/PSxUSGS-1480012.62 Unspecified NONE
2372008-05-14 11:22PSTYesBJS/PSxUSGS-1490012.59 Unspecified NONE
2362008-05-14 11:16PSTYesBJS/PSxUSGS-1510012.55 Unspecified NONE
2352008-05-14 11:11PSTYesBJS/PSxUSGS-1450012.51 Unspecified NONE
2342008-05-14 11:07PSTYesBJS/PSxUSGS-1440012.48 Unspecified NONE
2332008-05-14 11:00PSTYesBJS/PSxUSGS-1510012.43 Unspecified NONE
2322008-05-14 10:54PSTYesBJS/PSxUSGS-1530012.39 Unspecified NONE
2312008-05-14 10:50PSTYesBJS/PSxUSGS-1520012.35 Unspecified NONE
2302008-05-14 10:45PSTYesBJS/PSxUSGS-1540012.32 Unspecified NONE
2292008-05-14 10:40PSTYesBJS/PSxUSGS-1470012.28 Unspecified NONE
2282008-05-14 10:36PSTYesBJS/PSxUSGS-1530012.24 Unspecified NONE
2272008-05-14 10:31PSTYesBJS/PSxUSGS-1530012.21 Unspecified NONE
2262008-05-14 10:26PSTYesBJS/PSxUSGS-1520012.18 Unspecified NONE
2252008-05-14 10:21PSTYesBJS/PSxUSGS-1490012.15 Unspecified NONE
2242008-05-14 10:17PSTYesBJS/PSxUSGS-1500012.12 Unspecified NONE
2232008-05-14 10:12PSTYesBJS/PSxUSGS-1520012.09 Unspecified NONE
2222008-05-14 10:06PSTYesBJS/PSxUSGS-1440012.04 Unspecified NONE
2212008-05-14 10:01PSTYesBJS/PSxUSGS-1410012.01 Unspecified NONE
2202008-05-14 09:57PSTYesBJS/PSxUSGS-1460011.98 Unspecified NONE
2192008-05-14 09:52PSTYesBJS/PSxUSGS-1420011.95 Unspecified NONE
2182008-05-14 09:47PSTYesBJS/PSxUSGS-1370011.92 Unspecified NONE
2172008-05-14 09:43PSTYesBJS/PSxUSGS-1300011.90 Unspecified NONE
2162008-05-14 09:38PSTYesBJS/PSxUSGS-1300011.88 Unspecified NONE
2152008-05-14 09:32PSTYesBJS/PSxUSGS-1210011.85 Unspecified NONE
2142008-05-14 09:27PSTYesBJS/PSxUSGS-1140011.82 Unspecified NONE
2132008-05-14 09:22PSTYesBJS/PSxUSGS-1070011.79 Unspecified NONE
2122008-05-14 09:16PSTYesBJS/PSxUSGS-923011.75 Unspecified NONE
2112008-05-14 09:10PSTYesBJS/PSxUSGS-816011.72 Unspecified NONE
2102008-05-14 09:04PSTYesBJS/PSxUSGS-686011.68 Unspecified NONE
2092008-05-14 08:59PSTYesBJS/PSxUSGS-552011.64 Unspecified NONE
2082008-05-14 08:54PSTYesBJS/PSxUSGS-408011.61 Unspecified NONE
2072008-05-14 08:48PSTYesBJS/PSxUSGS-216011.57 Unspecified NONE
2062008-05-14 08:43PSTYesBJS/PSxUSGS-50211.54 Unspecified NONE
2052008-05-14 08:38PSTYesBJS/PSxUSGS98011.51 Unspecified NONE
2042008-05-14 08:33PSTYesBJS/PSxUSGS240011.47 Unspecified NONE
2032008-05-14 08:28PSTYesBJS/PSxUSGS378011.45 Unspecified NONE
2022008-05-14 08:22PSTYesBJS/PSxUSGS499011.43 Unspecified NONE
2012008-05-14 08:17PSTYesBJS/PSxUSGS580011.42 Unspecified NONE
2002008-05-14 08:12PSTYesBJS/PSxUSGS639011.42 Unspecified NONE
1992008-05-14 08:07PSTYesBJS/PSxUSGS713011.42 Unspecified NONE
1982008-05-14 07:50PSTYesBJS/PSxUSGS920011.43 Unspecified NONE
1972008-05-14 07:45PSTYesBJS/PSxUSGS968011.43 Unspecified NONE
1962008-05-14 07:41PSTYesBJS/PSxUSGS982011.44 Unspecified NONE
1952008-05-14 07:35PSTYesBJS/PSxUSGS1080011.46 Unspecified NONE
1942008-05-14 07:24PSTYesBJS/PSxUSGS1150011.49 Unspecified NONE
1932008-05-14 07:19PSTYesBJS/PSxUSGS1180011.51 Unspecified NONE
1922008-05-14 07:10PSTYesBJS/PSxUSGS1200011.56 Unspecified NONE
1912008-05-14 07:05PSTYesBJS/PSxUSGS1180011.58 Unspecified NONE
1902008-05-14 07:00PSTYesBJS/PSxUSGS1230011.61 Unspecified NONE
1892007-11-27 15:44PSTYesJEG/CRBUSGS-1670013.73 Unspecified NONE
1882007-11-27 15:39PSTYesJEG/CRBUSGS-1680013.67 Unspecified NONE
1872007-11-27 15:33PSTYesJEG/CRBUSGS-1700013.62 Unspecified NONE
1862007-11-27 15:26PSTYesJEG/CRBUSGS-1670013.55 Unspecified NONE
1852007-11-27 15:21PSTYesJEG/CRBUSGS-1690013.50 Unspecified NONE
1842007-11-27 15:15PSTYesJEG/CRBUSGS-1640013.44 Unspecified NONE
1832007-08-01 17:42PSTYesJRY/JWxUSGS-1650013.54 Unspecified NONE
1822007-08-01 17:37PSTYesJRY/JWxUSGS-1670013.49 Unspecified NONE
1812007-08-01 17:30PSTYesJRY/JWxUSGS-1670013.42 Unspecified NONE
1802007-08-01 16:37PSTYesJRY/JWxUSGS-1810012.91 Unspecified NONE
1792007-08-01 16:33PSTYesJRY/JWxUSGS-1810012.87 Unspecified NONE
1782007-08-01 16:28PSTYesJRY/JWxUSGS-1820012.82 Unspecified NONE
1772007-08-01 16:23PSTYesJRY/JWxUSGS-1820012.77 Unspecified NONE
1762007-08-01 16:17PSTYesJRY/JWxUSGS-1760012.71 Unspecified NONE
1752007-08-01 16:12PSTYesJRY/JWxUSGS-1800012.66 Unspecified NONE
1742007-08-01 16:07PSTYesJRY/JWxUSGS-1810012.61 Unspecified NONE
1732007-08-01 16:00PSTYesJRY/JWxUSGS-1810012.54 Unspecified NONE
1722007-08-01 15:54PSTYesJRY/JWxUSGS-1800012.49 Unspecified NONE
1712007-08-01 15:48PSTYesJRY/JWxUSGS-1840012.44 Unspecified NONE
1702007-08-01 15:25PSTYesJRY/JWxUSGS-1800012.26 Unspecified NONE
1692007-08-01 15:17PSTYesJRY/JWxUSGS-1700012.21 Unspecified NONE
1682007-08-01 15:07PSTYesJRY/JWxUSGS-1560012.12 Unspecified NONE
1672007-08-01 15:00PSTYesJRY/JWxUSGS-1470012.07 Unspecified NONE
1662007-08-01 14:52PSTYesJRY/JWxUSGS-1320012.00 Unspecified NONE
1652007-08-01 14:45PSTYesJRY/JWxUSGS-1070011.92 Unspecified NONE
1642007-08-01 14:38PSTYesJRY/JWxUSGS-872011.85 Unspecified NONE
1632007-08-01 14:26PSTYesJRY/JWxUSGS-522011.73 Unspecified NONE
1622007-08-01 14:19PSTYesJRY/JWxUSGS-261011.65 Unspecified NONE
1612007-08-01 14:10PSTYesJRY/JWxUSGS31311.59 Unspecified NONE
1602007-08-01 14:02PSTYesJRY/JWxUSGS293011.55 Unspecified NONE
1592007-08-01 13:53PSTYesJRY/JWxUSGS458011.52 Unspecified NONE
1582007-08-01 13:41PSTYesJRY/JWxUSGS630011.50 Unspecified NONE
1572007-08-01 13:33PSTYesJRY/JWxUSGS734011.51 Unspecified NONE
1562007-08-01 13:25PSTYesJRY/JWxUSGS800011.54 Unspecified NONE
1552007-08-01 13:17PSTYesJRY/JWxUSGS872011.57 Unspecified NONE
1542007-08-01 13:08PSTYesJRY/JWxUSGS897011.61 Unspecified NONE
1532007-08-01 13:00PSTYesJRY/JWxUSGS925011.65 Unspecified NONE
1522007-08-01 12:52PSTYesJRY/JWxUSGS956011.69 Unspecified NONE
1512007-08-01 12:44PSTYesJRY/JWxUSGS1000011.74 Unspecified NONE
1502007-08-01 12:37PSTYesJRY/JWxUSGS1040011.79 Unspecified NONE
1492007-08-01 12:28PSTYesJRY/JWxUSGS1040011.85 Unspecified NONE
1482007-08-01 12:17PSTYesJRY/JWxUSGS1070011.95 Unspecified NONE
1472007-08-01 12:09PSTYesJRY/JWxUSGS1060012.02 Unspecified NONE
1462007-08-01 11:52PSTYesJRY/JWxUSGS1110012.17 Unspecified NONE
1452007-08-01 11:37PSTYesJRY/JWxUSGS1130012.30 Unspecified NONE
1442007-08-01 11:28PSTYesJRY/JWxUSGS1150012.38 Unspecified NONE
1432007-08-01 11:19PSTYesJRY/JWxUSGS1130012.46 Unspecified NONE
1422007-08-01 11:12PSTYesJRY/JWxUSGS1200012.52 Unspecified NONE
1412007-08-01 11:04PSTYesJRY/JWxUSGS1190012.58 Unspecified NONE
1402007-08-01 10:57PSTYesJRY/JWxUSGS1220012.65 Unspecified NONE
1392007-08-01 10:50PSTYesJRY/JWxUSGS1190012.71 Unspecified NONE
1382007-08-01 09:47PSTYesJRY/JWxUSGS1300013.28 Unspecified NONE
1372007-08-01 09:38PSTYesJRY/JWxUSGS1470013.36 Unspecified NONE
1362007-08-01 09:29PSTYesJRY/JWxUSGS1530013.45 Unspecified NONE
1352007-08-01 09:19PSTYesJRY/JWxUSGS1520013.54 Unspecified NONE
1342007-08-01 09:11PSTYesJRY/JWxUSGS1430013.61 Unspecified NONE
1332007-08-01 08:59PSTYesJRY/JWxUSGS1500013.71 Unspecified NONE
1322007-08-01 08:49PSTYesJRY/JWxUSGS1560013.81 Unspecified NONE
1312007-08-01 08:40PSTYesJRY/JWxUSGS1430013.90 Unspecified NONE
1302007-08-01 08:26PSTYesJRY/JWxUSGS1460014.01 Unspecified NONE
1292007-03-02 18:02PSTYesPSx/xxxUSGS1370013.34 Unspecified NONE
1282007-03-02 17:55PSTYesPSx/xxxUSGS1280013.41 Unspecified NONE
1272007-03-02 17:48PSTYesPSx/xxxUSGS1220013.42 Unspecified NONE
1262007-03-02 17:41PSTYesPSx/xxxUSGS1190013.49 Unspecified NONE
1252007-03-02 17:34PSTYesPSx/xxxUSGS1100013.52 Unspecified NONE
1242007-03-02 17:26PSTYesPSx/xxxUSGS1030013.58 Unspecified NONE
1232007-03-02 17:20PSTYesPSx/xxxUSGS921013.62 Unspecified NONE
1222007-03-02 17:13PSTYesPSx/xxxUSGS809013.67 Unspecified NONE
1212007-03-02 17:08PSTYesPSx/xxxUSGS653013.71 Unspecified NONE
1202007-03-02 16:53PSTYesPSx/xxxUSGS312013.81 Unspecified NONE
1192007-03-02 16:45PSTYesPSx/xxxUSGS94913.86 Unspecified NONE
1182007-03-02 16:37PSTYesPSx/xxxUSGS-125013.91 Unspecified NONE
1172007-03-02 16:30PSTYesPSx/xxxUSGS-295013.94 Unspecified NONE
1162007-03-02 16:23PSTYesPSx/xxxUSGS-486013.96 Unspecified NONE
1152007-03-02 16:16PSTYesPSx/xxxUSGS-654013.97 Unspecified NONE
1142007-03-02 16:08PSTYesPSx/xxxUSGS-796013.98 Unspecified NONE
1132007-03-02 15:59PSTYesPSx/xxxUSGS-919013.97 Unspecified NONE
1122007-03-02 15:52PSTYesPSx/xxxUSGS-1020013.96 Unspecified NONE
1112007-03-02 15:45PSTYesPSx/xxxUSGS-1150013.94 Unspecified NONE
1102007-03-02 15:26PSTYesPSx/xxxUSGS-1330013.86 Unspecified NONE
1092007-03-02 15:20PSTYesPSx/xxxUSGS-1400013.84 Unspecified NONE
1082007-03-02 15:08PSTYesPSx/xxxUSGS-1430013.77 Unspecified NONE
1072007-03-02 15:02PSTYesPSx/xxxUSGS-1450013.71 Unspecified NONE
1062007-03-02 14:53PSTYesPSx/xxxUSGS-1470013.66 Unspecified NONE
1052007-03-02 14:47PSTYesPSx/xxxUSGS-1540013.61 Unspecified NONE
1042007-03-02 14:40PSTYesPSx/xxxUSGS-1530013.56 Unspecified NONE
1032007-03-02 14:33PSTYesPSx/xxxUSGS-1570013.50 Unspecified NONE
1022007-03-02 14:27PSTYesPSx/xxxUSGS-1610013.45 Unspecified NONE
1012007-03-02 14:20PSTYesPSx/xxxUSGS-1620013.39 Unspecified NONE
1002007-03-02 14:10PSTYesPSx/xxxUSGS-1610013.31 Unspecified NONE
992007-03-02 13:36PSTYesPSx/xxxUSGS-1610013.01 Unspecified NONE
982007-03-02 13:29PSTYesPSx/xxxUSGS-1600012.93 Unspecified NONE
972007-03-02 13:20PSTYesPSx/xxxUSGS-1660012.85 Unspecified NONE
962007-03-02 13:11PSTYesPSx/xxxUSGS-1630012.77 Unspecified NONE
952007-03-02 13:03PSTYesPSx/xxxUSGS-1620012.71 Unspecified NONE
942007-03-02 12:43PSTYesPSx/xxxUSGS-1600012.52 Unspecified NONE
932007-03-02 12:34PSTYesPSx/xxxUSGS-1610012.44 Unspecified NONE
922007-03-02 12:24PSTYesPSx/xxxUSGS-1630012.36 Unspecified NONE
912007-03-02 12:16PSTYesPSx/xxxUSGS-1540012.30 Unspecified NONE
902007-03-02 12:07PSTYesPSx/xxxUSGS-1500012.22 Unspecified NONE
892007-03-02 11:59PSTYesPSx/xxxUSGS-1390012.15 Unspecified NONE
882007-03-02 11:50PSTYesPSx/xxxUSGS-1280012.09 Unspecified NONE
872007-03-02 11:42PSTYesPSx/xxxUSGS-1130012.02 Unspecified NONE
862007-03-02 11:35PSTYesPSx/xxxUSGS-966011.97 Unspecified NONE
852007-03-02 11:29PSTYesPSx/xxxUSGS-816011.92 Unspecified NONE
842007-03-02 11:23PSTYesPSx/xxxUSGS-659011.86 Unspecified NONE
832007-03-02 11:18PSTYesPSx/xxxUSGS-491011.82 Unspecified NONE
822007-03-02 11:09PSTYesPSx/xxxUSGS-247011.74 Unspecified NONE
812007-03-02 11:03PSTYesPSx/xxxUSGS-51011.69 Unspecified NONE
802007-03-02 10:56PSTYesPSx/xxxUSGS117011.65 Unspecified NONE
792007-03-02 10:49PSTYesPSx/xxxUSGS273011.62 Unspecified NONE
782007-03-02 10:43PSTYesPSx/xxxUSGS370011.60 Unspecified NONE
772007-03-02 10:37PSTYesPSx/xxxUSGS472011.58 Unspecified NONE
762007-03-02 10:12PSTYesPSx/xxxUSGS748011.57 Unspecified NONE
752007-03-02 10:07PSTYesPSx/xxxUSGS798011.59 Unspecified NONE
742007-03-02 09:59PSTYesPSx/xxxUSGS796011.62 Unspecified NONE
732007-03-02 09:51PSTYesPSx/xxxUSGS846011.64 Unspecified NONE
722007-03-02 09:39PSTYesPSx/xxxUSGS855011.69 Unspecified NONE
712007-03-02 09:32PSTYesPSx/xxxUSGS877011.73 Unspecified NONE
702007-03-02 09:24PSTYesPSx/xxxUSGS868011.75 Unspecified NONE
692007-03-02 09:17PSTYesPSx/xxxUSGS882011.80 Unspecified NONE
682007-03-02 09:08PSTYesPSx/xxxUSGS883011.85 Unspecified NONE
672007-03-02 09:01PSTYesPSx/xxxUSGS877011.89 Unspecified NONE
662007-03-02 08:35PSTYesPSx/xxxUSGS897012.07 Unspecified NONE
652007-03-02 08:24PSTYesPSx/xxxUSGS911012.16 Unspecified NONE
642007-03-02 08:17PSTYesPSx/xxxUSGS920012.21 Unspecified NONE
632007-03-02 08:10PSTYesPSx/xxxUSGS897012.26 Unspecified NONE
622007-03-02 08:02PSTYesPSx/xxxUSGS932012.32 Unspecified NONE
612007-03-02 07:55PSTYesPSx/xxxUSGS956012.38 Unspecified NONE
602007-03-02 07:48PSTYesPSx/xxxUSGS970012.43 Unspecified NONE
592007-03-02 07:34PSTYesPSx/xxxUSGS949012.54 Unspecified NONE
582007-03-02 07:20PSTYesPSx/xxxUSGS920012.63 Unspecified NONE
572007-03-02 07:05PSTYesPSx/xxxUSGS894012.74 Unspecified NONE
562007-03-02 06:55PSTYesPSx/xxxUSGS884012.80 Unspecified NONE
552006-08-01 17:36PSTYes???USGS-1530012.83 Unspecified NONE
542006-08-01 17:31PSTYes???USGS-1550012.77 Unspecified NONE
532006-08-01 17:13PSTYes???USGS-1520012.62 Unspecified NONE
522006-08-01 17:07PSTYes???USGS-1520012.58 Unspecified NONE
512006-08-01 17:01PSTYes???USGS-1490012.53 Unspecified NONE
502006-08-01 16:54PSTYes???USGS-1410012.48 Unspecified NONE
492006-08-01 16:44PSTYes???USGS-1340012.40 Unspecified NONE
482006-08-01 16:36PSTYes???USGS-1270012.36 Unspecified NONE
472006-08-01 16:29PSTYes???USGS-1240012.31 Unspecified NONE
462006-08-01 16:22PSTYes???USGS-1120012.27 Unspecified NONE
452006-08-01 16:16PSTYes???USGS-1040012.24 Unspecified NONE
442006-08-01 16:10PSTYes???USGS-939012.18 Unspecified NONE
432006-08-01 16:04PSTYes???USGS-836012.16 Unspecified NONE
422006-08-01 15:58PSTYes???USGS-739012.13 Unspecified NONE
412006-08-01 15:52PSTYes???USGS-602012.10 Unspecified NONE
402006-08-01 15:46PSTYes???USGS-493012.07 Unspecified NONE
392006-08-01 15:40PSTYes???USGS-370012.03 Unspecified NONE
382006-08-01 15:34PSTYes???USGS-247012.01 Unspecified NONE
372006-08-01 15:27PSTYes???USGS-129011.98 Unspecified NONE
362006-08-01 15:22PSTYes???USGS-43611.97 Unspecified NONE
352006-08-01 15:06PSTYes???USGS178011.95 Unspecified NONE
342006-08-01 15:00PSTYes???USGS226011.96 Unspecified NONE
332006-08-01 14:45PSTYes???USGS347011.98 Unspecified NONE
322006-08-01 14:39PSTYes???USGS384012.00 Unspecified NONE
312006-08-01 14:33PSTYes???USGS434012.02 Unspecified NONE
302006-08-01 14:26PSTYes???USGS450012.04 Unspecified NONE
292006-08-01 14:18PSTYes???USGS509012.07 Unspecified NONE
282006-08-01 14:10PSTYes???USGS549012.10 Unspecified NONE
272006-08-01 13:36PSTYes???USGS645012.29 Unspecified NONE
262006-08-01 13:27PSTYes???USGS666012.34 Unspecified NONE
252006-08-01 13:01PSTYes???USGS734012.49 Unspecified NONE
242006-08-01 12:53PSTYes???USGS740012.54 Unspecified NONE
232006-08-01 12:22PSTYes???USGS782012.74 Unspecified NONE
222006-08-01 12:09PSTYes???USGS785012.83 Unspecified NONE
212006-08-01 11:59PSTYes???USGS807012.88 Unspecified NONE
202006-08-01 11:50PSTYes???USGS777012.94 Unspecified NONE
192006-08-01 11:43PSTYes???USGS762012.98 Unspecified NONE
182006-08-01 11:36PSTYes???USGS722013.02 Unspecified NONE
172006-08-01 11:08PSTYes???USGS589013.16 Unspecified NONE
162006-08-01 11:01PSTYes???USGS519013.20 Unspecified NONE
152006-08-01 10:54PSTYes???USGS458013.24 Unspecified NONE
142006-08-01 10:48PSTYes???USGS386013.28 Unspecified NONE
132006-08-01 10:40PSTYes???USGS289013.30 Unspecified NONE
122006-08-01 10:33PSTYes???USGS186013.33 Unspecified NONE
112006-08-01 10:12PSTYes???USGS-153013.39 Unspecified NONE
102006-08-01 10:05PSTYes???USGS-263013.40 Unspecified NONE
92006-08-01 09:58PSTYes???USGS-386013.41 Unspecified NONE
82006-08-01 09:50PSTYes???USGS-458013.41 Unspecified NONE
72006-08-01 09:44PSTYes???USGS-536013.40 Unspecified NONE
62006-08-01 09:36PSTYes???USGS-614013.40 Unspecified NONE
52006-08-01 09:26PSTYes???USGS-718013.38 Unspecified NONE
42006-08-01 09:17PSTYes???USGS-797013.36 Unspecified NONE
32006-08-01 09:05PSTYes???USGS-858013.31 Unspecified NONE
22006-08-01 08:57PSTYes???USGS-922013.29 Unspecified NONE
12006-08-01 08:50PSTYes???USGS-926013.24 Unspecified NONE